Regional Weather Roundup
Issued by NWS

Home | Current Version | Previous Version | Text Only | Print | Product List | Glossary Off
Versions: 1 2 3 4 5 6 7 8 9 10 11 12 13 14 15 16 17 18 19 20 21 22 23 24 25 26 27 28 29 30 31 32 33 34 35 36 37 38 39 40 41 42 43 44 45 46 47 48 49 50

000
ASUS43 KFSD 292210
RWRSD

WEATHER ROUNDUP FOR SOUTH DAKOTA
NATIONAL WEATHER SERVICE SIOUX FALLS SD
500 PM CDT FRI MAY 29 2015

NOTE: "FAIR" INDICATES FEW OR NO CLOUDS BELOW 12,000 FEET WITH NO
SIGNIFICANT WEATHER AND/OR OBSTRUCTIONS TO VISIBILITY.


SDZ001>005-009-010-012>017-292300-
NORTHWEST AND NORTH CENTRAL SOUTH DAKOTA

CITY           SKY/WX    TMP DP  RH WIND       PRES   REMARKS
BUFFALO          N/A     55  38  52 E10       30.21F
FAITH            N/A     54  37  52 N13G25    30.26R
MOBRIDGE       CLOUDY    57  38  48 N16       30.21R
$$

SDZ012>016-024>037-041>051-057-063-072>074-292300-
SOUTHWEST AND SOUTH CENTRAL SOUTH DAKOTA

CITY           SKY/WX    TMP DP  RH WIND       PRES   REMARKS
RAPID CTY ARPT PTSUNNY   57  43  59 NE18G30   30.26S
PIERRE         CLOUDY    53  42  66 N22       30.20S
CUSTER         CLOUDY    46  44  93 S8        30.27R
ELLSWORTH AFB  CLOUDY    55  41  58 N16       30.26S
PHILIP         CLOUDY    53  43  68 N17       30.25S
PINE RIDGE     LGT RAIN  47  43  86 N10       30.28R
SPEARFISH      FAIR      54  39  58 NW10      30.30S
WINNER         CLOUDY    51  46  83 N18       30.19R
$$

SDZ004>011-016>023-039-040-292300-
NORTHEAST SOUTH DAKOTA

CITY           SKY/WX    TMP DP  RH WIND       PRES   REMARKS
ABERDEEN       CLOUDY    54  43  66 N18       30.16F
WATERTOWN      CLOUDY    49  43  80 N22G30    30.08R
BROOKINGS      CLOUDY    48  45  87 N17G24    30.06S
SISSETON         N/A     49  43  80 N24G33    30.12S
$$

SDZ017-020-022-023-036>040-048>070-292300-
SOUTHEAST SOUTH DAKOTA

CITY           SKY/WX    TMP DP  RH WIND       PRES   REMARKS
SIOUX FALLS    CLOUDY    53  49  86 N18G29    30.01R
HURON          CLOUDY    52  44  74 N22G33    30.13R
CHAMBERLAIN    CLOUDY    51  46  82 N14G22    30.17R
MITCHELL       LGT RAIN  53  48  83 N24G37    30.10R
YANKTON        CLOUDY    57  52  82 N20G26    30.01R
$$

ABBREVIATIONS USED IN REMARKS
   TC - TEMPERATURE IN CELSIUS
  WCI - WIND CHILL INDEX
   HX - HEAT INDEX
  VSB - VISIBILITY



USA.gov is the U.S. government's official web portal to all federal, state and local government web resources and services.